Weather History for Tampa, FL

Change the Weather History Date:

Thursday, November 8, 2012

  Actual Average Record
Temperature  
Mean Temperature 59 °F 71 °F  
Max Temperature 68 °F 80 °F 88 °F (1986)
Min Temperature 50 °F 62 °F 42 °F (1976)
Degree Days  
Heating Degree Days 6 1  
Month to date heating degree days 7 6  
Since 1 July heating degree days 13 10  
Cooling Degree Days 0 6  
Month to date cooling degree days 29 57  
Year to date cooling degree days 3824 3423  
Growing Degree Days 9 (Base 50)    
Moisture  
Dew Point 40 °F    
Average Humidity 51    
Maximum Humidity 72    
Minimum Humidity 29    
Precipitation  
Precipitation 0.00 in 0.05 in 0.82 in (1903)
Month to date precipitation 0.08 0.41  
Year to date precipitation 53.71 42.69  
Sea Level Pressure  
Sea Level Pressure 30.12 in    
Wind  
Wind Speed 6 mph (North)    
Max Wind Speed 15 mph    
Max Gust Speed 20 mph    
Visibility 10 miles    
Events      
T = Trace of Precipitation, MM = Missing Value Source: NWS Daily Summary

Daily Weather History Graph

Daily Weather History Graph

Search for Another Location

Airport:

Trip Planner

Search our weather history database for the weather conditions in past years. The results will help you decide how hot, cold, wet, or windy it might be!

Date:

Astronomy

Nov. 08, 2012 Rise Set
Actual Time 6:46 AM EST 5:40 PM EST
Civil Twilight 6:22 AM EST 6:05 PM EST
Nautical Twilight 5:54 AM EST 6:33 PM EST
Astronomical Twilight 5:26 AM EST 7:01 PM EST
Moon 1:10 AM EST (11/8) 1:55 PM EST (11/8)
Length of Visible Light 11h 43m
Length of Day
10h 54m
Waning Crescent, 33% of the Moon is Illuminated
Nov 8
Waning Crescent
Nov 13
New
Nov 20
First Quarter
Nov 28
Full
Dec 6
Last Quarter

Hourly Weather History & Observations

Time (EST) Temp. Dew Point Humidity Pressure Visibility Wind Dir Wind Speed Gust Speed Precip Events Conditions
12:53 AM 57.0 °F 43.0 °F 59% 30.02 in 10.0 mi NNE 9.2 mph - N/A   Mostly Cloudy
1:53 AM 55.9 °F 42.1 °F 60% 30.03 in 10.0 mi Calm Calm - N/A   Scattered Clouds
2:53 AM 55.0 °F 39.9 °F 57% 30.04 in 10.0 mi NE 4.6 mph - N/A   Mostly Cloudy
3:53 AM 54.0 °F 37.9 °F 55% 30.04 in 10.0 mi North 8.1 mph - N/A   Scattered Clouds
4:53 AM 52.0 °F 37.9 °F 59% 30.06 in 10.0 mi NNE 5.8 mph - N/A   Partly Cloudy
5:53 AM 50.0 °F 39.2 °F 66% 30.08 in 10.0 mi North 3.5 mph - N/A   Clear
6:53 AM 51.1 °F 39.9 °F 66% 30.11 in 10.0 mi North 6.9 mph - N/A   Partly Cloudy
7:53 AM 53.1 °F 39.9 °F 61% 30.14 in 10.0 mi North 10.4 mph - N/A   Partly Cloudy
8:53 AM 57.0 °F 39.0 °F 51% 30.15 in 10.0 mi North 11.5 mph 19.6 mph N/A   Partly Cloudy
9:53 AM 60.1 °F 37.9 °F 44% 30.17 in 10.0 mi North 9.2 mph - N/A   Clear
10:53 AM 62.1 °F 39.0 °F 43% 30.17 in 10.0 mi NNW 6.9 mph 17.3 mph N/A   Clear
11:53 AM 64.9 °F 39.0 °F 39% 30.16 in 10.0 mi NW 5.8 mph 18.4 mph N/A   Clear
12:53 PM 66.0 °F 34.0 °F 30% 30.13 in 10.0 mi NW 6.9 mph 18.4 mph N/A   Clear
1:53 PM 66.9 °F 33.1 °F 28% 30.12 in 10.0 mi Variable 4.6 mph 19.6 mph N/A   Clear
2:53 PM 66.0 °F 33.1 °F 29% 30.11 in 10.0 mi NNW 6.9 mph - N/A   Partly Cloudy
3:53 PM 64.0 °F 37.0 °F 37% 30.11 in 10.0 mi WNW 10.4 mph - N/A   Partly Cloudy
4:53 PM 63.0 °F 39.0 °F 41% 30.12 in 10.0 mi NW 8.1 mph - N/A   Partly Cloudy
5:53 PM 59.0 °F 39.9 °F 49% 30.14 in 10.0 mi NW 6.9 mph - N/A   Partly Cloudy
6:53 PM 57.0 °F 41.0 °F 55% 30.15 in 10.0 mi North 4.6 mph - N/A   Clear
7:53 PM 55.9 °F 44.1 °F 64% 30.17 in 10.0 mi North 4.6 mph - N/A   Clear
8:53 PM 55.9 °F 44.1 °F 64% 30.18 in 10.0 mi North 6.9 mph - N/A   Clear
9:53 PM 55.0 °F 45.0 °F 69% 30.19 in 10.0 mi North 5.8 mph - N/A   Clear
10:53 PM 55.0 °F 46.0 °F 72% 30.20 in 10.0 mi Calm Calm - N/A   Clear
11:53 PM 54.0 °F 46.9 °F 77% 30.19 in 10.0 mi Calm Calm - N/A   Clear